User: anonymous   Login
Location: Carbonear
(47.7333°N, 53.2500°W)
Time: 22:06:08
(UTC+00:00)
Language:

UKube-1 - Orbit

View from above orbital plane
View from above orbital plane
View from above satellite
View from above satellite

Ground track
Ground track

The orbit data is extracted from the following two-line orbital elements,

1 40074U 14037F   24051.49072498  .00006436  00000-0  64682-3 0  9993
2 40074  98.3408 334.4393 0005757  94.3329 265.8546 14.91613263521226
Epoch (UTC): 20 February 2024 11:46:38
Eccentricity: 0.0005757
inclination: 98.3408°
perigee height: 589 km
apogee height: 597 km
right ascension of ascending node: 334.4393°
argument of perigee: 94.3329°
revolutions per day: 14.91613263
mean anomaly at epoch: 265.8546°
orbit number at epoch: 52122

The dashed part of the orbit path shows where the satellite is in the earth's shadow,  

DLR